This demonstration page uses our WeatherBlox Daily Observations layout. Learn more.

Left ArrowRight Arrow

39.08367, -84.50855

Hourly Observations for April 17, 2021

Temp ( °F °C ) Dew Point ( °F °C ) Humidity (%) Winds ( mph kmh ) Pressure ( in mb ) Visibility ( mi km ) Precip ( " mm )
12:53 am 00:53 Clear 42 5.6 39 3.9 89 89 Calm 29.91 1013 10 16.0934 0 0
1:53 am 01:53 Clear 40 4.4 38 3.3 93 93 Calm 29.91 1013 9 14.48406 0 0
2:53 am 02:53 Clear with Mist and Fog 39 3.9 37 2.8 93 93 Calm 29.9 1013 6 9.65604 0 0
3:53 am 03:53 Clear with Mist and Fog 40 4.4 38 3.3 93 93 Calm 29.91 1013 4 6.43736 0 0
4:53 am 04:53 Clear 42 5.6 39 3.9 89 89 Calm 29.9 1013 8 12.87472 0 0
5:53 am 05:53 Clear 42 5.6 39 3.9 89 89 Calm 29.9 1012 8 12.87472 0 0
6:53 am 06:53 Partly Cloudy 42 5.6 40 4.4 92 92 Calm 29.9 1012 9 14.48406 0 0
7:53 am 07:53 Mostly Cloudy 44 6.7 41 5 89 89 Calm 29.91 1013 8 12.87472 0 0
8:53 am 08:53 Cloudy 45 7.2 42 5.6 90 90 NE 3 6 29.91 1013 8 12.87472 0 0
9:53 am 09:53 Cloudy 48 8.9 43 6.1 83 83 Calm 29.92 1013 10 16.0934 0 0
10:53 am 10:53 Cloudy 51 10.6 42 5.6 71 71 Calm 29.92 1013 10 16.0934 0 0
11:53 am 11:53 Mostly Cloudy 54 12.2 43 6.1 67 67 Calm 29.92 1013 10 16.0934 0 0
12:53 pm 12:53 Cloudy with Light Rain 56 13.3 42 5.6 60 60 WSW 8 13 29.91 1013 10 16.0934 0.001 0.001
1:53 pm 13:53 Cloudy with Light Rain 54 12.2 43 6.1 67 67 VRB 5 7 29.92 1013 10 16.0934 0.01 0.254
2:53 pm 14:53 Cloudy with Light Rain 56 13.3 45 7.2 67 67 VRB 5 7 29.92 1013 10 16.0934 0.001 0.001
3:53 pm 15:53 Cloudy with Light Rain 55 13 45 7 67 67 N 7 11 29.91 1013 10 16.0934 0 0
4:53 pm 16:53 Cloudy with Light Rain 54 12.2 43 6.1 67 67 WNW 6 9 29.91 1013 10 16.0934 0 0
5:53 pm 17:53 Cloudy with Light Rain 53 11.7 45 7.2 74 74 WNW 3 6 29.91 1013 10 16.0934 0.001 0.001
6:53 pm 18:53 Cloudy 52 11.1 46 7.8 80 80 WSW 3 6 29.91 1013 10 16.0934 0.001 0.001
7:53 pm 19:53 Partly Cloudy 52 11.1 43 6.1 72 72 SW 5 7 29.91 1013 10 16.0934 0.001 0.001
8:53 pm 20:53 Clear 45 7.2 41 5 86 86 SSW 3 6 29.92 1013 10 16.0934 0 0
9:53 pm 21:53 Clear 42 5.6 40 4.4 92 92 SSW 3 6 29.94 1014 9 14.48406 0 0
10:53 pm 22:53 Clear with Mist and Fog 40 4.4 40 4.4 100 100 Calm 29.95 1014 1 1.60934 0 0
11:00 pm 23:00 Clear with Fog 42 5.6 40 4.4 92 92 Calm 29.96 1014 0.5 0.80467 0 0
11:05 pm 23:05 Clear with Mist and Fog 41 5 40 4.4 96 96 Calm 29.96 1014 2.5 4.02335 0 0
11:12 pm 23:12 Clear with Mist and Fog 39 3.9 38 3.3 96 96 Calm 29.96 1015 4 6.43736 0 0
11:15 pm 23:15 Clear with Mist and Fog 38 3.3 37 2.8 97 97 Calm 29.96 1015 1.5 2.41401 0 0
11:24 pm 23:24 Clear with Fog 39 3.9 38 3.3 96 96 Calm 29.96 1015 0.5 0.80467 0 0
11:36 pm 23:36 Clear with Mist and Fog 40 4.4 38 3.3 93 93 Calm 29.96 1015 1.5 2.41401 0 0
11:44 pm 23:44 Clear with Mist and Fog 38 3.3 37 2.8 97 97 Calm 29.96 1015 4 6.43736 0 0
11:53 pm 23:53 Mostly Cloudy with Mist and Fog 39 3.9 38 3.3 96 96 NE 3 6 29.95 1014 0.75 1.207005 0 0

Powered by AerisWeather